Weather History for KBCE - October, 2013

Change the Weather History Date:

Tuesday, October 29, 2013

  Actual Average Record
Temperature  
Mean Temperature 25 °F -  
Max Temperature 34 °F 51 °F 69 °F (2008)
Min Temperature 17 °F 23 °F 10 °F (2004)
Degree Days  
Heating Degree Days 40    
Moisture  
Dew Point 27 °F    
Average Humidity 91    
Maximum Humidity 100    
Minimum Humidity 81    
Precipitation  
Precipitation 0.17 in - - ()
Sea Level Pressure  
Sea Level Pressure 29.85 in    
Wind  
Wind Speed 7 mph (SSW)    
Max Wind Speed 21 mph    
Max Gust Speed 24 mph    
Visibility 5 miles    
Events Fog , Snow    
Averages and records for this station are not official NWS values.
T = Trace of Precipitation, MM = Missing Value Source: NWS Daily Summary

Daily Weather History Graph

Daily Weather History Graph

Search for Another Location

Airport or City:

Trip Planner

Search our weather history database for the weather conditions in past years. The results will help you decide how hot, cold, wet, or windy it might be!

Date:

Astronomy

Oct. 29, 2013 Rise Set
Actual Time 7:51 AM MDT 6:32 PM MDT
Civil Twilight 7:24 AM MDT 6:59 PM MDT
Nautical Twilight 6:53 AM MDT 7:30 PM MDT
Astronomical Twilight 6:22 AM MDT 8:01 PM MDT
Moon 2:50 AM MDT 3:43 PM MDT
Length of Visible Light 11h 35m
Length of Day
10h 41m
Waning Crescent, 24% of the Moon is Illuminated
Oct 29
Waning Crescent
Nov 3
New
Nov 9
First Quarter
Nov 17
Full
Nov 25
Last Quarter

Hourly Weather History & Observations

Time (MDT) Temp. Windchill Dew Point Humidity Pressure Visibility Wind Dir Wind Speed Gust Speed Precip Events Conditions
12:12 AM 32.0 °F 24.8 °F 30.2 °F 93% 29.84 in 1.0 mi SW 8.1 mph - 0.01 in Snow Light Snow
12:22 AM 32.0 °F 26.4 °F 32.0 °F 100% 29.83 in 0.5 mi WSW 5.8 mph - 0.03 in Fog , Snow Snow
12:53 AM 30.9 °F 26.2 °F 30.9 °F 100% 29.65 in 0.8 mi WSW 4.6 mph - 0.10 in Snow Light Snow
1:11 AM 30.2 °F 23.4 °F 30.2 °F 100% 29.83 in 2.0 mi West 6.9 mph - 0.02 in Snow Light Snow
1:18 AM 30.2 °F 23.4 °F 30.2 °F 100% 29.83 in 1.2 mi West 6.9 mph 21.9 mph 0.02 in Snow Light Snow
1:24 AM 30.2 °F 22.6 °F 28.4 °F 93% 29.83 in 2.0 mi SW 8.1 mph - 0.02 in Snow Light Snow
1:32 AM 30.2 °F 26.7 °F 28.4 °F 93% 29.83 in 6.0 mi SW 3.5 mph - 0.02 in Snow Light Snow
1:46 AM 30.2 °F 25.4 °F 28.4 °F 93% 29.82 in 8.0 mi SSW 4.6 mph - 0.02 in Snow Light Snow
1:53 AM 30.9 °F 27.5 °F 28.9 °F 92% 29.63 in 6.0 mi SW 3.5 mph - 0.02 in Snow Light Snow
2:13 AM 30.2 °F 23.4 °F 30.2 °F 100% 29.82 in 2.5 mi SSE 6.9 mph - 0.00 in Snow Light Snow
2:20 AM 30.2 °F 21.3 °F 30.2 °F 100% 29.82 in 0.8 mi SSE 10.4 mph - 0.01 in Snow Light Snow
2:26 AM 30.2 °F 22.6 °F 30.2 °F 100% 29.82 in 1.5 mi SE 8.1 mph - 0.01 in Snow Light Snow
2:30 AM 30.2 °F 22.6 °F 30.2 °F 100% 29.83 in 3.0 mi SSE 8.1 mph - 0.01 in Snow Light Snow
2:36 AM 30.2 °F 21.9 °F 30.2 °F 100% 29.83 in 2.0 mi SE 9.2 mph - 0.01 in Snow Light Snow
2:40 AM 30.2 °F 22.6 °F 30.2 °F 100% 29.83 in 1.5 mi SE 8.1 mph - 0.01 in Snow Light Snow
2:48 AM 30.2 °F 21.9 °F 30.2 °F 100% 29.83 in 2.5 mi SE 9.2 mph - 0.01 in Snow Light Snow
2:53 AM 30.9 °F 23.5 °F 30.0 °F 96% 29.64 in 1.5 mi SSE 8.1 mph - 0.01 in   Overcast
3:06 AM 30.2 °F 22.6 °F 30.2 °F 100% 29.84 in 0.8 mi South 8.1 mph - N/A   Overcast
3:19 AM 28.4 °F 19.1 °F 28.4 °F 100% 29.83 in 1.0 mi WSW 10.4 mph - N/A   Overcast
3:29 AM 28.4 °F 18.0 °F 24.8 °F 86% 29.84 in 10.0 mi WSW 12.7 mph - N/A   Mostly Cloudy
3:53 AM 28.9 °F 21.1 °F 24.1 °F 82% 29.68 in 10.0 mi South 8.1 mph - N/A   Mostly Cloudy
4:53 AM 30.0 °F 20.5 °F 25.0 °F 82% 29.72 in 10.0 mi SW 11.5 mph - 0.00 in   Mostly Cloudy
5:01 AM 30.2 °F 17.4 °F 26.6 °F 86% 29.85 in 1.2 mi WSW 20.7 mph 24.2 mph 0.00 in Snow Light Snow
5:09 AM 30.2 °F 19.8 °F 28.4 °F 93% 29.85 in 0.8 mi WSW 13.8 mph 24.2 mph 0.00 in Snow Light Snow
5:19 AM 30.2 °F 18.9 °F 28.4 °F 93% 29.85 in 1.0 mi SW 16.1 mph 24.2 mph 0.01 in Snow Light Snow
5:26 AM 28.4 °F 17.5 °F 26.6 °F 93% 29.86 in 3.0 mi WSW 13.8 mph - 0.01 in Snow Light Snow
5:53 AM 28.0 °F 18.6 °F 24.1 °F 85% 29.75 in 9.0 mi SW 10.4 mph - 0.01 in   Mostly Cloudy
6:53 AM 21.9 °F 15.7 °F 19.0 °F 89% 29.81 in 10.0 mi NW 4.6 mph - N/A   Clear
7:53 AM 17.1 °F - 15.1 °F 92% 29.84 in 10.0 mi Calm Calm - N/A   Clear
8:53 AM 21.9 °F - 19.9 °F 92% 29.86 in 10.0 mi Calm Calm - N/A   Overcast
9:53 AM 28.9 °F 22.8 °F 25.0 °F 85% 29.85 in 10.0 mi SSE 5.8 mph - N/A   Overcast
10:53 AM 30.9 °F 26.2 °F 27.0 °F 85% 29.84 in 10.0 mi SE 4.6 mph - N/A   Overcast
11:53 AM 30.9 °F 23.5 °F 28.9 °F 92% 29.85 in 10.0 mi SE 8.1 mph - N/A   Overcast
12:04 PM 30.2 °F 21.9 °F 28.4 °F 93% 29.95 in 7.0 mi SE 9.2 mph - 0.00 in Snow Light Snow
12:11 PM 30.2 °F 25.4 °F 28.4 °F 93% 29.95 in 5.0 mi SE 4.6 mph - 0.00 in Snow Light Snow
12:20 PM 33.8 °F 30.8 °F 28.4 °F 81% 29.93 in 6.0 mi NE 3.5 mph - 0.00 in Snow Light Snow
12:27 PM 32.0 °F - 28.4 °F 87% 29.94 in 8.0 mi Calm Calm - 0.00 in Snow Light Snow
12:53 PM 32.0 °F 27.5 °F 28.9 °F 88% 29.83 in 10.0 mi SE 4.6 mph - 0.00 in   Overcast
1:34 PM 32.0 °F - 28.4 °F 87% 29.91 in 2.5 mi Calm Calm - 0.00 in Snow Light Snow
1:39 PM 32.0 °F - 28.4 °F 87% 29.91 in 1.5 mi Calm Calm - 0.01 in Snow Light Snow
1:47 PM 33.8 °F - 28.4 °F 81% 29.91 in 3.0 mi Calm Calm - 0.01 in Snow Light Snow
1:53 PM 33.1 °F - 28.0 °F 82% 29.81 in 8.0 mi Calm Calm - 0.01 in Snow Light Snow
2:02 PM 32.0 °F - 28.4 °F 87% 29.91 in 2.5 mi Calm Calm - 0.00 in Snow Light Snow
2:06 PM 32.0 °F 27.5 °F 28.4 °F 87% 29.91 in 0.8 mi SE 4.6 mph - 0.00 in Snow Light Snow
2:13 PM 30.2 °F 26.7 °F 28.4 °F 93% 29.91 in 0.5 mi South 3.5 mph - 0.01 in Fog , Snow Snow
2:18 PM 30.2 °F 26.7 °F 28.4 °F 93% 29.91 in 1.0 mi South 3.5 mph - 0.01 in Snow Light Snow
2:33 PM 32.0 °F 27.5 °F 28.4 °F 87% 29.90 in 3.0 mi WSW 4.6 mph - 0.01 in Snow Light Snow
2:42 PM 32.0 °F 23.0 °F 28.4 °F 87% 29.90 in 2.5 mi SW 11.5 mph - 0.01 in Snow Light Snow
2:51 PM 30.2 °F 21.9 °F 28.4 °F 93% 29.90 in 1.8 mi WSW 9.2 mph - 0.01 in Snow Light Snow
2:53 PM 30.9 °F 22.2 °F 28.0 °F 89% 29.81 in 2.0 mi WSW 10.4 mph - 0.01 in Snow Light Snow
2:57 PM 30.2 °F 21.3 °F 28.4 °F 93% 29.90 in 3.0 mi WSW 10.4 mph - 0.00 in Snow Light Snow
3:49 PM 30.2 °F 23.4 °F 28.4 °F 93% 29.89 in 2.5 mi West 6.9 mph - 0.00 in Snow Light Snow
3:53 PM 30.9 °F 25.2 °F 28.9 °F 92% 29.81 in 1.8 mi WSW 5.8 mph - 0.01 in Snow Light Snow
4:07 PM 30.2 °F - 28.4 °F 93% 29.89 in 3.0 mi Calm Calm - 0.00 in Snow Light Snow
4:19 PM 32.0 °F - 28.4 °F 87% 29.89 in 9.0 mi Calm Calm - 0.00 in   Overcast
4:53 PM 33.1 °F - 28.0 °F 82% 29.79 in 10.0 mi Calm Calm - 0.00 in   Mostly Cloudy
5:53 PM 32.0 °F - 28.0 °F 85% 29.81 in 10.0 mi Calm Calm - N/A   Partly Cloudy
6:53 PM 23.0 °F 15.8 °F 21.0 °F 92% 29.88 in 10.0 mi North 5.8 mph - N/A   Clear
7:53 PM 21.9 °F - 19.0 °F 89% 29.95 in 10.0 mi Calm Calm - N/A   Clear
8:53 PM 24.1 °F 19.7 °F 21.0 °F 88% 29.93 in 10.0 mi WSW 3.5 mph - N/A   Mostly Cloudy
9:53 PM 19.9 °F 13.4 °F 18.0 °F 92% 29.93 in 10.0 mi West 4.6 mph - N/A   Scattered Clouds
10:53 PM 21.9 °F 14.5 °F 19.9 °F 92% 29.93 in 10.0 mi WSW 5.8 mph - N/A   Mostly Cloudy
11:53 PM 24.1 °F 19.7 °F 23.0 °F 96% 29.92 in 7.0 mi West 3.5 mph - 0.00 in Snow Light Snow